Location: Ch?enovice
(49.7164°N, 15.2160°E)
Time: 19:48:14
(UTC+00:00)

Cosmos 1300 Rocket - Pass Details

Date: 23 May 2024
Orbit: 597 x 624 km, 82.5° (Epoch: 20 June)

Event Time Altitude Azimuth Distance (km) Brightness Sun altitude
Rises 01:10:41 0° 347° (NNW) 2,877 7.7 -13.6°
Reaches altitude 10° 01:12:56 10° 344° (NNW) 1,964 6.7 -13.4°
Maximum altitude 01:17:13 62° 264° (W) 681 3.6 -13.0°
Enters shadow 01:20:34 16° 186° (S) 1,589 5.1 -12.7°
